Terug naar catalogus

FREGAT DEB

ActiefUNKNOWN
NORAD 52959·DEBRIS·🇷🇺 Russia

Gelanceerd Jul 18, 2011 vanaf Baikonur Cosmodrome

Loading…

Volgende Passages (komende 24 uur)

TLE

VersSource: Space-Track

Epoch: Sep 13, 2026, 22:14 UTC

1 52959U 11037PN  26256.92651931  .00009248  00000-0  17672-2 0  9997
2 52959  51.4797  91.7544 1434370 190.5812 166.1551 12.23558789  4046

Volg FREGAT DEB in realtime met AllMySat

Download on the App Store